Location: Nakusp
(50.2330°N, 117.8000°W)
Time: 13:49:14
(UTC-07:00)

Cosmos 1939 Rocket - Visible Passes

Search period start: 29 March 2015 00:00
Search period end: 08 April 2015 00:00
Orbit: 535 x 593 km, 97.6° (Epoch: 29 March)

Date Brightness Start Highest point End Pass type
(mag) Time Alt. Az. Time Alt. Az. Time Alt. Az.
29 Mar 4.8 19:49:22 10° E 19:51:43 15° ENE 19:54:09 10° NNE visible
29 Mar 3.0 21:24:25 33° S 21:26:16 76° WSW 21:30:27 10° NNW visible
30 Mar 4.8 19:49:30 10° E 19:51:50 15° ENE 19:54:18 10° NNE visible
30 Mar 3.0 21:24:28 31° S 21:26:24 76° WSW 21:30:35 10° NNW visible
31 Mar 4.8 19:49:38 10° E 19:51:58 15° ENE 19:54:25 10° NNE visible
31 Mar 3.0 21:24:30 30° S 21:26:31 75° WSW 21:30:42 10° NNW visible
01 Apr 3.0 21:24:31 28° S 21:26:39 75° WSW 21:30:49 10° NNW visible
02 Apr 3.1 21:24:33 27° S 21:26:46 75° WSW 21:30:55 10° NNW visible
03 Apr 3.1 21:24:34 26° S 21:26:52 75° WSW 21:31:02 10° NNW visible
04 Apr 3.1 21:24:35 25° S 21:26:59 74° WSW 21:31:07 10° NNW visible
05 Apr 3.1 21:24:35 23° S 21:27:04 74° WSW 21:31:13 10° NNW visible
06 Apr 3.1 21:24:34 22° S 21:27:10 74° WSW 21:31:17 10° NNW visible
07 Apr 3.1 21:24:34 21° S 21:27:15 74° WSW 21:31:22 10° NNW visible
